TimeEST,TemperatureF,Dew PointF,Humidity,Sea Level PressureIn,VisibilityMPH,Wind Direction,Wind SpeedMPH,Gust SpeedMPH,PrecipitationIn,Events,Conditions,WindDirDegrees,DateUTC
12:15 AM,33.8,27.0,76,30.24,10.0,SSE,6.9,-,N/A,,Clear,160,2013-01-09 05:15:00
12:55 AM,33.3,26.6,77,30.24,10.0,South,5.8,-,N/A,,Clear,170,2013-01-09 05:55:00
1:15 AM,32.7,26.6,78,30.23,10.0,South,5.8,-,N/A,,Clear,170,2013-01-09 06:15:00
1:35 AM,33.3,26.8,77,30.23,10.0,South,5.8,-,N/A,,Clear,170,2013-01-09 06:35:00
1:55 AM,33.1,26.6,77,30.22,10.0,SSE,5.8,-,N/A,,Clear,160,2013-01-09 06:55:00
2:15 AM,32.4,26.4,79,30.23,10.0,South,6.9,-,N/A,,Clear,170,2013-01-09 07:15:00
2:35 AM,33.3,26.8,77,30.23,10.0,SSE,4.6,-,N/A,,Clear,160,2013-01-09 07:35:00
2:55 AM,32.4,27.1,81,30.22,10.0,SSE,3.5,-,N/A,,Scattered Clouds,150,2013-01-09 07:55:00
3:15 AM,32.7,27.3,81,30.22,10.0,SSE,5.8,-,N/A,,Overcast,160,2013-01-09 08:15:00
3:35 AM,33.4,27.7,79,30.22,10.0,South,6.9,-,N/A,,Overcast,170,2013-01-09 08:35:00
3:55 AM,35.6,28.4,75,30.21,10.0,South,6.9,-,N/A,,Overcast,170,2013-01-09 08:55:00
4:15 AM,36.5,28.6,73,30.22,10.0,South,9.2,-,N/A,,Overcast,180,2013-01-09 09:15:00
4:35 AM,37.4,29.3,73,30.22,10.0,South,8.1,-,N/A,,Overcast,170,2013-01-09 09:35:00
4:55 AM,37.2,29.7,74,30.20,10.0,South,8.1,-,N/A,,Overcast,180,2013-01-09 09:55:00
5:15 AM,36.9,30.0,76,30.20,10.0,South,9.2,-,N/A,,Overcast,180,2013-01-09 10:15:00
5:35 AM,36.7,30.7,79,30.20,10.0,South,8.1,-,N/A,,Overcast,180,2013-01-09 10:35:00
5:55 AM,36.7,31.8,83,30.21,10.0,South,8.1,-,N/A,,Overcast,190,2013-01-09 10:55:00
6:15 AM,36.9,32.2,83,30.21,10.0,SSW,9.2,-,N/A,,Overcast,200,2013-01-09 11:15:00
6:35 AM,36.9,32.9,86,30.22,10.0,SSW,8.1,-,N/A,,Overcast,200,2013-01-09 11:35:00
6:55 AM,36.9,33.1,86,30.23,10.0,SSW,8.1,-,N/A,,Overcast,210,2013-01-09 11:55:00
7:15 AM,37.6,33.8,86,30.24,10.0,SSW,9.2,-,N/A,,Overcast,210,2013-01-09 12:15:00
7:50 AM,37.4,33.8,87,30.25,10.0,SSW,9.2,-,N/A,,Overcast,210,2013-01-09 12:50:00
8:50 AM,39.2,35.6,87,30.25,7.0,South,11.5,-,N/A,,Overcast,190,2013-01-09 13:50:00
9:50 AM,39.2,37.4,93,30.28,10.0,SW,13.8,20.7,N/A,,Mostly Cloudy,220,2013-01-09 14:50:00
10:50 AM,39.2,37.4,93,30.29,10.0,SW,11.5,-,N/A,,Mostly Cloudy,230,2013-01-09 15:50:00
11:50 AM,41.0,37.4,87,30.31,10.0,WSW,11.5,-,N/A,,Scattered Clouds,240,2013-01-09 16:50:00
12:50 PM,42.8,37.4,81,30.30,10.0,WSW,9.2,-,N/A,,Clear,240,2013-01-09 17:50:00
1:50 PM,42.8,37.4,81,30.29,10.0,WSW,11.5,-,N/A,,Clear,240,2013-01-09 18:50:00
2:50 PM,44.6,37.4,76,30.33,10.0,SW,10.4,-,N/A,,Clear,230,2013-01-09 19:50:00
3:50 PM,42.8,35.6,76,30.34,10.0,SW,9.2,-,N/A,,Clear,230,2013-01-09 20:50:00
4:47 PM,41.0,35.6,81,30.35,10.0,SW,9.2,-,N/A,,Clear,230,2013-01-09 21:47:00
5:55 PM,39.2,33.8,81,30.39,10.0,WSW,5.8,-,N/A,,Clear,240,2013-01-09 22:55:00
8:15 PM,39.2,31.6,74,30.44,10.0,WSW,3.5,-,N/A,,Clear,240,2013-01-10 01:15:00
8:35 PM,36.7,30.7,79,30.44,10.0,SW,5.8,-,N/A,,Clear,220,2013-01-10 01:35:00
8:55 PM,34.0,30.0,85,30.45,10.0,SW,5.8,-,N/A,,Clear,220,2013-01-10 01:55:00
9:15 PM,34.3,30.0,84,30.46,10.0,SW,5.8,-,N/A,,Clear,220,2013-01-10 02:15:00
9:35 PM,33.1,29.3,86,30.46,10.0,SW,5.8,-,N/A,,Clear,220,2013-01-10 02:35:00
9:55 PM,32.4,28.8,87,30.46,10.0,SW,5.8,-,N/A,,Clear,230,2013-01-10 02:55:00
10:15 PM,34.9,30.4,84,30.47,10.0,WSW,4.6,-,N/A,,Clear,240,2013-01-10 03:15:00
10:35 PM,33.6,29.3,84,30.48,10.0,SW,4.6,-,N/A,,Clear,230,2013-01-10 03:35:00
10:55 PM,33.3,29.3,85,30.50,10.0,SW,5.8,-,N/A,,Clear,220,2013-01-10 03:55:00
11:15 PM,32.2,28.9,88,30.51,10.0,SW,5.8,-,N/A,,Clear,220,2013-01-10 04:15:00
11:35 PM,32.7,29.5,88,30.51,10.0,WSW,4.6,-,N/A,,Clear,240,2013-01-10 04:35:00
11:55 PM,34.9,30.2,83,30.50,10.0,SW,4.6,-,N/A,,Clear,230,2013-01-10 04:55:00